Regional Weather Roundup
Issued by NWS Spokane, WA

Home | Current Version | Previous Version | Text Only | Print | Product List | Glossary On
Versions: 1 2 3 4 5 6 7 8 9 10 11 12 13 14 15 16 17 18 19 20 21 22 23 24 25 26 27 28 29 30 31 32 33 34 35 36 37 38 39 40 41 42 43 44 45 46 47 48 49 50
000
NZUS01 KOTX 102025
RWROTX

Eastern Washington/Northern Idaho Roundup
National Weather Service, Spokane WA
1200 PM PST SAT DEC 10 2016

Note: "fair" indicated few or no clouds below 12,000 feet with no
significant weather and/or obstructions to visibility.

...Northeast Washington and Northern Idaho Panhandle...

CITY           SKY/WX    TMP DP  RH WIND       PRES   REMARKS
Spokane Intl   CLOUDY    20  18  92 S6        29.90S WCI  12
Spokane Downto CLOUDY    23  19  85 SW7       29.93S WCI  15
Coeur d Alene  CLOUDY    24  20  84 SW7       29.91R WCI  16
Deer Park      CLOUDY    22  17  81 S9        29.91R WCI  12
Sandpoint      CLOUDY    21  18  86 SW6       29.90S WCI  14
Bonners Ferry  CLOUDY    19  14  79 CALM      29.87R

...Southeast Washington and southern Idaho Panhandle...

CITY           SKY/WX    TMP DP  RH WIND       PRES   REMARKS
Walla Walla    SUNNY     23  17  78 E5        29.94F WCI  17
Pullman/Moscow CLOUDY    22  18  85 NE5       29.91S WCI  16
Lewiston       CLOUDY    27  22  81 CALM      29.96S
Grangeville    MOCLDY    28  27  93 E8        29.85R WCI  20

...Columbia Basin...

CITY           SKY/WX    TMP DP  RH WIND       PRES   REMARKS
Ephrata        CLOUDY    23  16  74 E6        29.95R WCI  16
Moses Lake     CLOUDY    22  19  89 SE13      29.95F WCI  10
Pasco          CLOUDY    29  26  89 E5        30.01S WCI  24
Richland       CLOUDY    31  25  78 S5        30.00S WCI  27
Hermiston      SUNNY     29  21  72 S3        29.98F
Pendleton      CLOUDY    25  21  85 SE7       29.92F WCI  17

...East Slopes Cascades...

CITY           SKY/WX    TMP DP  RH WIND       PRES   REMARKS
The Dalles     SUNNY     28  21  75 CALM      30.02F
Yakima         CLOUDY    20  17  88 CALM      29.96F FOG
Ellensburg     CLOUDY    18  16  92 CALM      29.90S FOG
Stampede Pass  PTSUNNY   29  27  92 CALM      29.75F
Wenatchee      SUNNY     21  18  88 CALM      29.94S
Omak           CLOUDY    20  16  84 CALM      29.95F
Chelan           N/A     21  12  68 N7          N/A  WCI  13
Sunnyside      CLOUDY    22  19  89 SW3       29.99R FOG

...Southern British Columbia...

CITY           SKY/WX    TMP DP  RH WIND       PRES   REMARKS
Penticton      PTSUNNY   25  19  80 S12G18    29.93S WCI  14
Castlegar      PTSUNNY   25  16  68 S6        29.90S WCI  18
Cranbrook      CRYSTALS   9   1  72 NE2       29.82S
Osoyoos          N/A     23  18  80 SE8         N/A  WCI  14
Creston          N/A     23  18  80 SE2         N/A

...Western Montana...

CITY           SKY/WX    TMP DP  RH WIND       PRES   REMARKS
Kalispell      LGT SNOW  13   8  81 CALM      29.81S
Libby            N/A     18  10  73 CALM      29.85R
Missoula       CLOUDY    21  17  84 CALM      29.80R

...Neighboring Cities...

CITY           SKY/WX    TMP DP  RH WIND       PRES   REMARKS
Seattle        CLOUDY    43  36  76 S10G21    29.84F
Portland       PTSUNNY   37  33  85 SE9       29.98F
Boise          LGT RAIN  34  34 100 NW6       29.88R VSB 1/4 WCI  29
Great Falls    LGT SNOW   7   3  84 VRB6      29.68R WCI  -3
Calgary        LGT SNOW   0  -6  78 VRB2      29.74F



USA.gov is the U.S. government's official web portal to all federal, state and local government web resources and services.